H1 CPF 2 NER 2022 9 5 9 248 01 glonass139 H2 1808601 9139 43687 2022 9 5 0 0 0 2022 9 8 23 45 0 900 1 1 0 0 0 1 H9 10 0 59827 0.00000 0 -6653044.923 13559272.962 -20528147.596 10 0 59827 900.00000 0 -7348965.147 11038024.700 -21762990.455 10 0 59827 1800.00000 0 -8268661.047 8455218.336 -22574027.265 10 0 59827 2700.00000 0 -9401775.415 5878832.428 -22945451.678 10 0 59827 3600.00000 0 -10725925.932 3374603.889 -22870036.246 10 0 59827 4500.00000 0 -12207509.144 1003494.959 -22349273.363 10 0 59827 5400.00000 0 -13802994.786 -1180628.695 -21393344.287 10 0 59827 6300.00000 0 -15460656.349 -3133012.184 -20020916.927 10 0 59827 7200.00000 0 -17122665.155 -4819634.320 -18258776.576 10 0 59827 8100.00000 0 -18727459.811 -6218372.494 -16141297.079 10 0 59827 9000.00000 0 -20212291.128 -7319662.132 -13709763.068 10 0 59827 9900.00000 0 -21515835.117 -8126624.736 -11011557.032 10 0 59827 10800.00000 0 -22580763.791 -8654661.176 -8099227.626 10 0 59827 11700.00000 0 -23356165.361 -8930529.465 -5029458.036 10 0 59827 12600.00000 0 -23799711.842 -8990948.027 -1861955.336 10 0 59827 13500.00000 0 -23879482.948 -8880785.499 1341716.786 10 0 59827 14400.00000 0 -23575369.857 -8650915.348 4519338.555 10 0 59827 15300.00000 0 -22880000.312 -8355827.532 7609243.860 10 0 59827 16200.00000 0 -21799146.871 -8051099.235 10551515.451 10 0 59827 17100.00000 0 -20351601.873 -7790832.321 13289142.341 10 0 59827 18000.00000 0 -18568525.076 -7625165.919 15769117.201 10 0 59827 18900.00000 0 -16492291.782 -7597969.032 17943453.154 10 0 59827 19800.00000 0 -14174889.806 -7744809.998 19770101.271 10 0 59827 20700.00000 0 -11675932.095 -8091287.720 21213752.109 10 0 59827 21600.00000 0 -9060367.219 -8651794.275 22246507.159 10 0 59827 22500.00000 0 -6395981.986 -9428760.451 22848408.500 10 0 59827 23400.00000 0 -3750798.664 -10412415.727 23007817.518 10 0 59827 24300.00000 0 -1190473.203 -11581073.000 22721636.256 10 0 59827 25200.00000 0 1224199.391 -12901926.867 21995367.562 10 0 59827 26100.00000 0 3439570.785 -14332333.096 20843012.904 10 0 59827 27000.00000 0 5411122.965 -15821517.183 19286809.413 10 0 59827 27900.00000 0 7105068.913 -17312642.136 17356810.380 10 0 59827 28800.00000 0 8499504.767 -18745150.511 15090316.214 10 0 59827 29700.00000 0 9585066.329 -20057284.107 12531165.529 10 0 59827 30600.00000 0 10365062.965 -21188676.882 9728898.673 10 0 59827 31500.00000 0 10855083.429 -22082912.981 6737808.670 10 0 59827 32400.00000 0 11082090.161 -22689942.673 3615896.878 10 0 59827 33300.00000 0 11083039.995 -22968254.294 423752.852 10 0 59827 34200.00000 0 10903089.247 -22886709.947 -2776620.160 10 0 59827 35100.00000 0 10593458.920 -22425966.433 -5923011.299 10 0 59827 36000.00000 0 10209050.447 -21579419.969 -8954215.963 10 0 59827 36900.00000 0 9805913.220 -20353633.198 -11811233.149 10 0 59827 37800.00000 0 9438671.809 -18768224.763 -14438422.171 10 0 59827 38700.00000 0 9158022.738 -16855224.436 -16784595.337 10 0 59827 39600.00000 0 9008407.868 -14657919.551 -18804024.321 10 0 59827 40500.00000 0 9025964.087 -12229240.044 -20457339.850 10 0 59827 41400.00000 0 9236837.293 -9629748.982 -21712306.517 10 0 59827 42300.00000 0 9655933.096 -6925322.306 -22544457.044 10 0 59827 43200.00000 0 10286158.104 -4184614.525 -22937573.367 10 0 59827 44100.00000 0 11118184.727 -1476416.137 -22884004.947 10 0 59827 45000.00000 0 12130750.057 1132986.875 -22384818.055 10 0 59827 45900.00000 0 13291476.710 3582341.418 -21449773.169 10 0 59827 46800.00000 0 14558181.224 5817738.279 -20097131.047 10 0 59827 47700.00000 0 15880614.867 7794609.707 -18353291.464 10 0 59827 48600.00000 0 17202563.270 9479330.965 -16252271.931 10 0 59827 49500.00000 0 18464216.093 10850360.044 -13835036.923 10 0 59827 50400.00000 0 19604706.331 11898869.273 -11148691.201 10 0 59827 51300.00000 0 20564711.781 12628844.153 -8245553.537 10 0 59827 52200.00000 0 21289008.543 13056647.332 -5182129.537 10 0 59827 53100.00000 0 21728868.581 13210068.197 -2018004.429 10 0 59827 54000.00000 0 21844200.113 13126900.304 1185321.916 10 0 59827 54900.00000 0 21605340.702 12853108.681 4365634.359 10 0 59827 55800.00000 0 20994427.751 12440666.097 7461212.285 10 0 59827 56700.00000 0 20006289.162 11945151.057 10412026.032 10 0 59827 57600.00000 0 18648817.188 11423209.870 13160896.659 10 0 59827 58500.00000 0 16942810.301 10929990.383 15654596.790 10 0 59827 59400.00000 0 14921290.069 10516655.616 17844871.865 10 0 59827 60300.00000 0 12628321.719 10228081.703 19689362.959 10 0 59827 61200.00000 0 10117387.516 10100836.382 21152414.415 10 0 59827 62100.00000 0 7449380.170 10161522.255 22205752.010 10 0 59827 63000.00000 0 4690298.760 10425553.636 22829019.822 10 0 59827 63900.00000 0 1908741.708 10896417.737 23010166.518 10 0 59827 64800.00000 0 -826700.853 11565450.908 22745674.511 10 0 59827 65700.00000 0 -3450048.965 12412139.461 22040628.010 10 0 59827 66600.00000 0 -5900422.852 13404933.008 20908618.720 10 0 59827 67500.00000 0 -8124319.644 14502537.237 19371490.618 10 0 59827 68400.00000 0 -10077583.837 15655633.209 17458927.919 10 0 59827 69300.00000 0 -11726990.869 16808952.510 15207893.090 10 0 59827 70200.00000 0 -13051378.806 17903622.625 12661924.491 10 0 59827 71100.00000 0 -14042281.575 18879685.276 9870305.758 10 0 59827 72000.00000 0 -14704037.419 19678682.757 6887121.853 10 0 59827 72900.00000 0 -15053368.088 20246203.879 3770218.909 10 0 59827 73800.00000 0 -15118446.276 20534282.216 580087.274 10 0 59827 74700.00000 0 -14937490.274 20503544.952 -2621310.881 10 0 59827 75600.00000 0 -14556944.989 20125020.594 -5771746.659 10 0 59827 76500.00000 0 -14029326.081 19381527.802 -8809938.523 10 0 59827 77400.00000 0 -13410818.543 18268585.006 -11676750.994 10 0 59827 78300.00000 0 -12758731.747 16794800.553 -14316353.898 10 0 59827 79200.00000 0 -12128919.291 14981725.068 -16677318.680 10 0 59827 80100.00000 0 -11573273.659 12863170.537 -18713629.456 10 0 59827 81000.00000 0 -11137402.665 10484023.209 -20385588.332 10 0 59827 81900.00000 0 -10858586.902 7898598.895 -21660596.661 10 0 59827 82800.00000 0 -10764105.500 5168608.755 -22513796.480 10 0 59827 83700.00000 0 -10870001.734 2360820.086 -22928559.265 10 0 59827 84600.00000 0 -11180341.265 -455490.542 -22896812.335 10 0 59827 85500.00000 0 -11686994.767 -3211185.526 -22419196.418 10 0 59828 0.00000 0 -12369954.244 -5839905.349 -21505051.519 10 0 59828 900.00000 0 -13198170.099 -8280590.024 -20172230.870 10 0 59828 1800.00000 0 -14130872.446 -10479774.439 -18446748.157 10 0 59828 2700.00000 0 -15119321.722 -12393567.116 -16362263.536 10 0 59828 3600.00000 0 -16108913.338 -13989226.973 -13959419.942 10 0 59828 4500.00000 0 -17041547.177 -15246274.760 -11285042.713 10 0 59828 5400.00000 0 -17858161.219 -16157093.903 -8391218.798 10 0 59828 6300.00000 0 -18501321.648 -16726997.379 -5334274.084 10 0 59828 7200.00000 0 -18917759.554 -16973759.805 -2173669.642 10 0 59828 8100.00000 0 -19060746.725 -16926636.532 1029160.924 10 0 59828 9000.00000 0 -18892210.064 -16624913.176 4212009.696 10 0 59828 9900.00000 0 -18384495.473 -16116048.543 7313104.264 10 0 59828 10800.00000 0 -17521707.031 -15453490.924 10272305.342 10 0 59828 11700.00000 0 -16300565.390 -14694260.961 13032268.868 10 0 59828 12600.00000 0 -14730749.677 -13896403.739 15539550.240 10 0 59828 13500.00000 0 -12834708.765 -13116417.646 17745629.931 10 0 59828 14400.00000 0 -10646949.897 -12406767.979 19607841.566 10 0 59828 15300.00000 0 -8212834.191 -11813589.251 21090185.569 10 0 59828 16200.00000 0 -5586928.719 -11374671.840 22164014.000 10 0 59828 17100.00000 0 -2830982.763 -11117816.463 22808574.589 10 0 59828 18000.00000 0 -11611.184 -11059624.574 23011404.600 10 0 59828 18900.00000 0 2802220.594 -11204774.624 22768567.779 10 0 59828 19800.00000 0 5541807.487 -11545814.104 22084730.322 10 0 59828 20700.00000 0 8141305.091 -12063476.062 20973074.474 10 0 59828 21600.00000 0 10540213.511 -12727507.278 19455051.035 10 0 59828 22500.00000 0 12685643.307 -13497974.136 17559974.779 10 0 59828 23400.00000 0 14534270.711 -14326992.482 15324469.513 10 0 59828 24300.00000 0 16053901.860 -15160810.012 12791772.199 10 0 59828 25200.00000 0 17224581.478 -15942154.803 10010908.213 10 0 59828 26100.00000 0 18039199.965 -16612752.077 7035752.448 10 0 59828 27000.00000 0 18503573.482 -17115903.770 3923993.380 10 0 59828 27900.00000 0 18635993.467 -17399022.240 736019.352 10 0 59828 28800.00000 0 18466264.161 -17416010.803 -2466251.633 10 0 59828 29700.00000 0 18034268.370 -17129389.676 -5620575.938 10 0 59828 30600.00000 0 17388121.737 -16512076.193 -8665598.467 10 0 59828 31500.00000 0 16581993.409 -15548742.415 -11542052.640 10 0 59828 32400.00000 0 15673685.359 -14236690.911 -14193922.086 10 0 59828 33300.00000 0 14722073.106 -12586209.723 -16569540.526 10 0 59828 34200.00000 0 13784516.606 -10620389.643 -18622607.432 10 0 59828 35100.00000 0 12914351.481 -8374409.659 -20313098.917 10 0 59828 36000.00000 0 12158567.366 -5894319.036 -21608055.396 10 0 59828 36900.00000 0 11555772.161 -3235365.897 -22482230.101 10 0 59828 37800.00000 0 11134528.760 -459941.380 -22918585.500 10 0 59828 38700.00000 0 10912134.892 2364775.327 -22908627.742 10 0 59828 39600.00000 0 10893897.761 5169373.020 -22452572.525 10 0 59828 40500.00000 0 11072934.077 7884859.117 -21559339.218 10 0 59828 41400.00000 0 11430503.637 10445294.558 -20246373.453 10 0 59828 42300.00000 0 11936861.905 12790303.096 -18539301.876 10 0 59828 43200.00000 0 12552594.933 14867350.699 -16471426.052 10 0 59828 44100.00000 0 13230379.445 16633700.395 -14083065.738 10 0 59828 45000.00000 0 13917092.840 18057961.671 -11420764.834 10 0 59828 45900.00000 0 14556183.028 19121170.754 -8536376.079 10 0 59828 46800.00000 0 15090197.052 19817358.015 -5486042.932 10 0 59828 47700.00000 0 15463360.808 20153580.389 -2329099.332 10 0 59828 48600.00000 0 15624100.189 20149419.415 873090.542 10 0 59828 49500.00000 0 15527396.692 19835967.993 4058329.230 10 0 59828 50400.00000 0 15136877.788 19254350.405 7164795.742 10 0 59828 51300.00000 0 14426553.815 18453839.645 10132244.271 10 0 59828 52200.00000 0 13382128.318 17489652.670 12903168.554 10 0 59828 53100.00000 0 12001826.892 16420517.331 15423909.434 10 0 59828 54000.00000 0 10296709.868 15306113.776 17645684.824 10 0 59828 54900.00000 0 8290455.719 14204497.819 19525523.013 10 0 59828 55800.00000 0 6018624.091 13169613.981 21027082.327 10 0 59828 56700.00000 0 3527428.654 12249001.653 22121342.611 10 0 59828 57600.00000 0 872070.026 11481789.444 22787156.429 10 0 59828 58500.00000 0 -1885303.085 10897060.515 23011650.448 10 0 59828 59400.00000 0 -4677921.384 10512656.234 22790470.165 10 0 59828 60300.00000 0 -7436916.394 10334467.312 22127863.761 10 0 59828 61200.00000 0 -10093932.970 10356241.576 21036603.567 10 0 59828 62100.00000 0 -12583726.501 10559916.243 19537746.299 10 0 59828 63000.00000 0 -14846638.785 10916461.026 17660235.949 10 0 59828 63900.00000 0 -16830851.096 11387197.322 15440355.924 10 0 59828 64800.00000 0 -18494321.919 11925538.880 12921039.747 10 0 59828 65700.00000 0 -19806329.314 12479081.731 10151052.224 10 0 59828 66600.00000 0 -20748553.792 12991956.207 7184055.729 10 0 59828 67500.00000 0 -21315656.409 13407342.550 4077578.540 10 0 59828 68400.00000 0 -21515327.532 13670044.205 891904.412 10 0 59828 69300.00000 0 -21367803.745 13729009.917 -2311095.397 10 0 59828 70200.00000 0 -20904872.713 13539697.357 -5469165.083 10 0 59828 71100.00000 0 -20168407.490 13066177.198 -8520878.530 10 0 59828 72000.00000 0 -19208491.785 12282887.131 -11406840.560 10 0 59828 72900.00000 0 -18081215.225 11175959.882 -14070851.016 10 0 59828 73800.00000 0 -16846231.849 9744067.066 -16461008.166 10 0 59828 74700.00000 0 -15564185.285 7998741.280 -18530728.928 10 0 59828 75600.00000 0 -14294109.800 5964160.862 -20239665.261 10 0 59828 76500.00000 0 -13090917.474 3676404.535 -21554498.194 10 0 59828 77400.00000 0 -12003078.085 1182205.763 -22449593.405 10 0 59828 78300.00000 0 -11070589.980 -1462742.204 -22907505.278 10 0 59828 79200.00000 0 -10323327.732 -4195860.562 -22919319.390 10 0 59828 80100.00000 0 -9779836.306 -6950052.280 -22484826.656 10 0 59828 81000.00000 0 -9446622.330 -9656263.998 -21612525.826 10 0 59828 81900.00000 0 -9317971.826 -12246135.820 -20319454.350 10 0 59828 82800.00000 0 -9376301.429 -14654628.377 -18630851.156 10 0 59828 83700.00000 0 -9593027.280 -16822517.781 -16579658.176 10 0 59828 84600.00000 0 -9929913.853 -18698654.537 -14205870.691 10 0 59828 85500.00000 0 -10340844.539 -20241892.429 -11555749.658 10 0 59829 0.00000 0 -10773937.910 -21422607.483 -8680912.192 10 0 59829 900.00000 0 -11173919.203 -22223744.985 -5637316.988 10 0 59829 1800.00000 0 -11484645.112 -22641350.545 -2484169.174 10 0 59829 2700.00000 0 -11651674.904 -22684566.673 717238.539 10 0 59829 3600.00000 0 -11624777.889 -22375095.097 3904721.318 10 0 59829 4500.00000 0 -11360270.997 -21746149.960 7016411.889 10 0 59829 5400.00000 0 -10823087.471 -20840947.468 9991960.350 10 0 59829 6300.00000 0 -9988489.343 -19710796.962 12773700.756 10 0 59829 7200.00000 0 -8843351.638 -18412874.760 15307761.975 10 0 59829 8100.00000 0 -7386964.410 -17007774.903 17545101.920 10 0 59829 9000.00000 0 -5631318.916 -15556939.749 19442446.018 10 0 59829 9900.00000 0 -3600865.828 -14120077.819 20963112.796 10 0 59829 10800.00000 0 -1331755.100 -12752676.258 22077711.951 10 0 59829 11700.00000 0 1129411.591 -11503710.873 22764702.660 10 0 59829 12600.00000 0 3727264.985 -10413648.238 23010802.465 10 0 59829 13500.00000 0 6399720.424 -9512821.964 22811239.763 10 0 59829 14400.00000 0 9080314.583 -8820249.753 22169845.538 10 0 59829 15300.00000 0 11700731.581 -8342939.673 21098982.699 10 0 59829 16200.00000 0 14193415.542 -8075714.008 19619314.049 10 0 59829 17100.00000 0 16494162.966 -8001557.730 17759412.633 10 0 59829 18000.00000 0 18544588.633 -8092477.151 15555220.937 10 0 59829 18900.00000 0 20294363.701 -8310833.083 13049368.122 10 0 59829 19800.00000 0 21703133.530 -8611093.104 10290357.094 10 0 59829 20700.00000 0 22742035.462 -8941929.851 7331635.922 10 0 59829 21600.00000 0 23394753.088 -9248577.428 4230570.460 10 0 59829 22500.00000 0 23658062.458 -9475346.823 1047337.247 10 0 59829 23400.00000 0 23541846.646 -9568193.976 -2156242.181 10 0 59829 24300.00000 0 23068577.426 -9477231.465 -5317903.057 10 0 59829 25200.00000 0 22272285.115 -9159076.606 -8376151.587 10 0 59829 26100.00000 0 21197059.451 -8578935.286 -11271467.336 10 0 59829 27000.00000 0 19895144.316 -7712331.713 -13947469.623 10 0 59829 27900.00000 0 18424706.463 -6546408.992 -16352024.366 10 0 59829 28800.00000 0 16847372.475 -5080743.606 -18438268.813 10 0 59829 29700.00000 0 15225638.013 -3327637.356 -20165533.410 10 0 59829 30600.00000 0 13620258.926 -1311872.512 -21500142.144 10 0 59829 31500.00000 0 12087734.552 930061.184 -22416075.152 10 0 59829 32400.00000 0 10677989.488 3351236.718 -22895480.382 10 0 59829 33300.00000 0 9432351.575 5896005.084 -22929024.078 10 0 59829 34200.00000 0 8381911.183 8502084.577 -22516073.201 10 0 59829 35100.00000 0 7546330.479 11102937.274 -21664706.251 10 0 59829 36000.00000 0 6933152.193 13630333.672 -20391552.421 10 0 59829 36900.00000 0 6537636.105 16016998.376 -18721462.388 10 0 59829 37800.00000 0 6343128.993 18199226.405 -16687017.480 10 0 59829 38700.00000 0 6321951.075 20119360.875 -14327887.083 10 0 59829 39600.00000 0 6436760.088 21728028.606 -11690047.344 10 0 59829 40500.00000 0 6642333.861 22986040.560 -8824876.950 10 0 59829 41400.00000 0 6887694.499 23865878.236 -5788148.213 10 0 59829 42300.00000 0 7118482.999 24352704.622 -2638933.960 10 0 59829 43200.00000 0 7279482.593 24444858.609 561547.800 10 0 59829 44100.00000 0 7317183.085 24153813.551 3751128.244 10 0 59829 45000.00000 0 7182277.021 23503603.293 6867897.240 10 0 59829 45900.00000 0 6831981.736 22529741.368 9851404.164 10 0 59829 46800.00000 0 6232089.018 21277680.158 12643826.605 10 0 59829 47700.00000 0 5358655.948 19800875.883 15191084.452 10 0 59829 48600.00000 0 4199265.782 18158541.357 17443878.340 10 0 59829 49500.00000 0 2753805.925 16413180.954 19358633.230 10 0 59829 50400.00000 0 1034730.305 14628010.863 20898329.913 10 0 59829 51300.00000 0 -933205.167 12864371.836 22033209.627 10 0 59829 52200.00000 0 -3113723.655 11179241.435 22741339.446 10 0 59829 53100.00000 0 -5460293.329 9622948.351 23009028.637 10 0 59829 54000.00000 0 -7917826.805 8237182.615 22831088.874 10 0 59829 54900.00000 0 -10424745.072 7053383.212 22210933.830 10 0 59829 55800.00000 0 -12915321.842 6091569.049 21160516.362 10 0 59829 56700.00000 0 -15322212.878 5359660.976 19700104.216 10 0 59829 57600.00000 0 -17579066.989 4853322.431 17857897.852 10 0 59829 58500.00000 0 -19623111.679 4556325.056 15669496.761 10 0 59829 59400.00000 0 -21397607.122 4441423.895 13177223.304 10 0 59829 60300.00000 0 -22854067.055 4471705.700 10429315.779 10 0 59829 61200.00000 0 -23954154.210 4602354.092 7479005.073 10 0 59829 62100.00000 0 -24671171.038 4782757.595 4383491.670 10 0 59829 63000.00000 0 -24991082.803 4958871.948 1202841.953 10 0 59829 63900.00000 0 -24913029.404 5075736.921 -2001175.133 10 0 59829 64800.00000 0 -24449303.514 5080040.932 -5166288.633 10 0 59829 65700.00000 0 -23624794.989 4922624.165 -8230939.727 10 0 59829 66600.00000 0 -22475924.075 4560813.208 -11135485.243 10 0 59829 67500.00000 0 -21049107.629 3960486.853 -13823366.337 10 0 59829 68400.00000 0 -19398822.475 3097783.943 -16242218.735 10 0 59829 69300.00000 0 -17585347.280 1960379.122 -18344901.916 10 0 59829 70200.00000 0 -15672277.993 548270.659 -20090426.386 10 0 59829 71100.00000 0 -13723921.579 -1125954.901 -21444760.294 10 0 59829 72000.00000 0 -11802677.921 -3037394.127 -22381499.038 10 0 59829 72900.00000 0 -9966520.183 -5149624.314 -22882384.504 10 0 59829 73800.00000 0 -8266679.576 -7415995.159 -22937663.588 10 0 59829 74700.00000 0 -6745631.771 -9781361.209 -22546278.887 10 0 59829 75600.00000 0 -5435469.148 -12184183.226 -21715887.920 10 0 59829 76500.00000 0 -4356726.618 -14558910.872 -20462710.589 10 0 59829 77400.00000 0 -3517709.470 -16838547.125 -18811208.048 10 0 59829 78300.00000 0 -2914350.219 -18957287.167 -16793599.543 10 0 59829 79200.00000 0 -2530598.990 -20853121.295 -14449226.940 10 0 59829 80100.00000 0 -2339329.338 -22470292.836 -11823779.853 10 0 59829 81000.00000 0 -2303719.472 -23761508.288 -8968397.010 10 0 59829 81900.00000 0 -2379048.779 -24689807.379 -5938661.994 10 0 59829 82800.00000 0 -2514832.031 -25230015.193 -2793513.724 10 0 59829 83700.00000 0 -2657199.475 -25369716.289 405906.376 10 0 59829 84600.00000 0 -2751420.825 -25109711.019 3597447.424 10 0 59829 85500.00000 0 -2744465.434 -24463936.148 6719158.421 10 0 59830 0.00000 0 -2587489.696 -23458854.566 9710489.806 10 0 59830 900.00000 0 -2238146.110 -22132340.388 12513465.366 10 0 59830 1800.00000 0 -1662616.693 -20532108.766 15073797.866 10 0 59830 2700.00000 0 -837284.801 -18713755.207 17341932.777 10 0 59830 3600.00000 0 250024.714 -16738488.144 19273996.624 10 0 59830 4500.00000 0 1599289.057 -14670649.071 20832634.330 10 0 59830 5400.00000 0 3198046.607 -12575123.314 21987720.315 10 0 59830 6300.00000 0 5021682.094 -10514748.483 22716930.939 10 0 59830 7200.00000 0 7034226.629 -8547827.336 23006168.285 10 0 59830 8100.00000 0 9189640.315 -6725847.083 22849828.097 10 0 59830 9000.00000 0 11433525.500 -5091498.430 22250907.229 10 0 59830 9900.00000 0 13705200.948 -3677075.367 21220948.693 10 0 59830 10800.00000 0 15940052.471 -2503320.927 19779825.111 10 0 59830 11700.00000 0 18072064.061 -1578765.957 17955364.024 10 0 59830 12600.00000 0 20036425.696 -899587.826 15782821.314 10 0 59830 13500.00000 0 21772110.579 -449994.529 13304211.635 10 0 59830 14400.00000 0 23224315.262 -203118.019 10567507.455 10 0 59830 15300.00000 0 24346661.134 -122379.403 7625720.917 10 0 59830 16200.00000 0 25103065.256 -163268.825 4535885.226 10 0 59830 17100.00000 0 25469201.676 -275465.204 1357954.361 10 0 59830 18000.00000 0 25433491.101 -405206.462 -1846357.870 10 0 59830 18900.00000 0 24997576.296 -497809.859 -5014777.083 10 0 59830 19800.00000 0 24176262.052 -500235.253 -8085682.337 10 0 59830 20700.00000 0 22996921.044 -363581.956 -10999310.649 10 0 59830 21600.00000 0 21498389.580 -45412.207 -13698927.885 10 0 59830 22500.00000 0 19729398.838 488198.600 -16131942.327 10 0 59830 23400.00000 0 17746607.071 1260973.377 -18250938.261 10 0 59830 24300.00000 0 15612315.188 2285179.733 -20014608.645 10 0 59830 25200.00000 0 13391961.623 3560866.076 -21388567.969 10 0 59830 26100.00000 0 11151501.807 5075621.376 -22346028.848 10 0 59830 27000.00000 0 8954782.303 6804870.283 -22868328.820 10 0 59830 27900.00000 0 6861019.817 8712692.572 -22945296.842 10 0 59830 28800.00000 0 4922490.772 10753133.454 -22575452.227 10 0 59830 29700.00000 0 3182527.986 12871950.530 -21766032.207 10 0 59830 30600.00000 0 1673907.844 15008724.603 -20532847.657 10 0 59830 31500.00000 0 417694.785 17099245.967 -18899970.024 10 0 59830 32400.00000 0 -577409.661 19078076.217 -16899255.813 10 0 59830 33300.00000 0 -1315187.464 20881178.058 -14569718.241 10 0 59830 34200.00000 0 -1811490.974 22448502.664 -11956758.793 10 0 59830 35100.00000 0 -2093315.450 23726425.983 -9111274.198 10 0 59830 36000.00000 0 -2197398.349 24669931.817 -6088656.851 10 0 59830 36900.00000 0 -2168406.449 25244450.206 -2947708.957 10 0 59830 37800.00000 0 -2056789.256 25427274.441 250507.754 10 0 59830 38700.00000 0 -1916391.013 25208497.900 3443863.643 10 0 59830 39600.00000 0 -1801923.592 24591432.259 6570370.271 10 0 59830 40500.00000 0 -1766408.032 23592490.601 9569383.107 10 0 59830 41400.00000 0 -1858693.447 22240541.382 12382774.413 10 0 59830 42300.00000 0 -2121158.268 20575761.340 14956053.606 10 0 59830 43200.00000 0 -2587690.775 18648036.140 17239413.978 10 0 59830 44100.00000 0 -3282033.795 16514976.063 19188686.328 10 0 59830 45000.00000 0 -4216562.921 14239629.675 20766182.073 10 0 59830 45900.00000 0 -5391549.453 11887990.422 21941410.819 10 0 59830 46800.00000 0 -6794939.049 9526399.116 22691659.765 10 0 59830 47700.00000 0 -8402655.732 7218949.247 23002424.898 10 0 59830 48600.00000 0 -10179419.335 5025001.451 22867686.595 10 0 59830 49500.00000 0 -12080043.458 2996908.776 22290024.898 10 0 59830 50400.00000 0 -14051161.163 1178045.643 21280572.404 10 0 59830 51300.00000 0 -16033308.205 -398779.107 19858805.463 10 0 59830 52200.00000 0 -17963278.714 -1712460.405 18052176.990 10 0 59830 53100.00000 0 -19776656.689 -2754239.903 15895597.045 10 0 59830 54000.00000 0 -21410419.171 -3527827.575 13430769.941 10 0 59830 54900.00000 0 -22805503.429 -4048997.249 10705399.334 10 0 59830 55800.00000 0 -23909231.387 -4344673.089 7772275.435 10 0 59830 56700.00000 0 -24677489.913 -4451545.315 4688260.847 10 0 59830 57600.00000 0 -25076575.187 -4414273.324 1513193.817 10 0 59830 58500.00000 0 -25084622.871 -4283351.847 -1691270.248 10 0 59830 59400.00000 0 -24692562.847 -4112730.388 -4862856.696 10 0 59830 60300.00000 0 -23904557.004 -3957286.945 -7939885.444 10 0 59830 61200.00000 0 -22737900.205 -3870263.579 -10862476.513 10 0 59830 62100.00000 0 -21222387.259 -3900773.365 -13573723.055 10 0 59830 63000.00000 0 -19399171.270 -4091485.549 -16020808.221 10 0 59830 63900.00000 0 -17319160.508 -4476588.357 -18156043.080 10 0 59830 64800.00000 0 -15041020.439 -5080117.219 -19937804.615 10 0 59830 65700.00000 0 -12628864.403 -5914720.753 -21331354.759 10 0 59830 66600.00000 0 -10149729.676 -6980918.193 -22309523.930 10 0 59830 67500.00000 0 -7670944.633 -8266881.033 -22853245.369 10 0 59830 68400.00000 0 -5257497.258 -9748749.400 -22951929.633 10 0 59830 69300.00000 0 -2969515.148 -11391470.805 -22603671.829 10 0 59830 70200.00000 0 -859962.234 -13150126.760 -21815287.577 10 0 59830 71100.00000 0 1027351.888 -14971691.997 -20602177.097 10 0 59830 72000.00000 0 2659367.336 -16797152.524 -18988020.254 10 0 59830 72900.00000 0 4014908.345 -18563893.565 -17004308.771 10 0 59830 73800.00000 0 5085310.523 -20208256.944 -14689725.057 10 0 59830 74700.00000 0 5874516.308 -21668160.122 -12089380.234 10 0 59830 75600.00000 0 6398636.591 -22885666.648 -9253926.770 10 0 59830 76500.00000 0 6684999.052 -23809399.761 -6238563.607 10 0 59830 77400.00000 0 6770725.414 -24396697.596 -3101953.978 10 0 59830 78300.00000 0 6700899.764 -24615419.555 94922.302 10 0 59830 79200.00000 0 6526407.094 -24445328.257 3289959.022 10 0 59830 80100.00000 0 6301535.006 -23878989.542 6421132.421 10 0 59830 81000.00000 0 6081441.106 -22922153.484 9427704.795 10 0 59830 81900.00000 0 5919593.928 -21593601.207 12251399.383 10 0 59830 82800.00000 0 5865295.807 -19924464.739 14837523.811 10 0 59830 83700.00000 0 5961392.290 -17957049.038 17136020.871 10 0 59830 84600.00000 0 6242264.376 -15743205.777 19102427.102 10 0 59830 85500.00000 0 6732187.698 -13342326.897 20698721.644 99